QPF
0.00 0.00 0.00 0.00 0.00 0.00 0.00 0.00 0.00 0.00 0.00 0.00 0.00 0.00 0.00 0.00 0.00 0.00 0.00 0.00 0.00 0.00 0.00 0.00 0.00 0.00 0.00 0.00 0.00 0.00 0.00 0.00 0.01 0.01 0.02 0.04 0.03 0.01 0.00 0.00 0.00 0.00 0.00
0.00 0.00 0.00 0.00 0.00 0.00 0.00 0.00 0.00 0.00 0.00 0.00 0.00 0.00 0.00 0.00 0.00 0.00 0.00 0.00 0.00 0.00 0.00 0.00 0.00 0.00 0.00 0.00 0.00 0.00 0.00 0.00 0.00 0.00 0.00 0.01 0.02 0.01 0.00 0.00 0.00 0.00 0.00
0.00 0.00 0.00 0.00 0.00 0.00 0.00 0.00 0.00 0.00 0.00 0.00 0.00 0.00 0.00 0.00 0.00 0.01 0.01 0.01 0.00 0.00 0.00 0.00 0.00 0.00 0.01 0.01 0.00 0.00 0.00 0.01 0.00 0.00 0.00 0.01 0.00 0.00 0.00 0.00 0.00 0.00 0.00
0.00 0.00 0.00 0.00 0.00 0.00 0.00 0.00 0.00 0.00 0.00 0.00 0.00 0.00 0.00 0.00 0.01 0.01 0.01 0.01 0.01 0.01 0.01 0.00 0.00 0.00 0.01 0.01 0.01 0.00 0.01 0.01 0.00 0.00 0.01 0.02 0.01 0.02 0.00 0.00 0.00 0.00 0.00
0.00 0.00 0.00 0.00 0.00 0.00 0.00 0.00 0.00 0.00 0.00 0.00 0.00 0.00 0.00 0.00 0.01 0.01 0.01 0.01 0.02 0.02 0.01 0.00 0.00 0.00 0.00 0.01 0.01 0.01 0.01 0.02 0.02 0.01 0.01 0.02 0.02 0.07 0.03 0.00 0.00 0.00 0.00
0.00 0.00 0.00 0.00 0.00 0.00 0.00 0.00 0.00 0.00 0.00 0.00 0.00 0.00 0.00 0.01 0.00 0.01 0.01 0.01 0.01 0.01 0.01 0.00 0.00 0.00 0.00 0.00 0.00 0.01 0.03 0.04 0.02 0.00 0.01 0.02 0.02 0.07 0.05 0.01 0.00 0.00 0.00
0.00 0.00 0.00 0.00 0.00 0.00 0.00 0.00 0.00 0.00 0.00 0.00 0.00 0.00 0.00 0.01 0.01 0.00 0.00 0.00 0.01 0.01 0.01 0.00 0.00 0.00 0.00 0.00 0.00 0.01 0.03 0.02 0.01 0.01 0.01 0.01 0.01 0.06 0.05 0.01 0.00 0.00 0.00
0.00 0.00 0.00 0.00 0.00 0.00 0.00 0.00 0.00 0.00 0.00 0.00 0.00 0.00 0.00 0.01 0.01 0.00 0.00 0.00 0.00 0.01 0.01 0.01 0.01 0.00 0.00 0.00 0.00 0.01 0.02 0.01 0.00 0.00 0.01 0.01 0.01 0.04 0.04 0.02 0.00 0.00 0.00
0.00 0.00 0.00 0.00 0.00 0.00 0.00 0.00 0.00 0.00 0.00 0.00 0.00 0.00 0.00 0.00 0.01 0.01 0.00 0.00 0.00 0.00 0.00 0.00 0.00 0.01 0.01 0.01 0.01 0.01 0.01 0.01 0.00 0.00 0.01 0.01 0.01 0.03 0.04 0.02 0.00 0.00 0.00
0.00 0.00 0.00 0.00 0.00 0.00 0.00 0.00 0.00 0.00 0.00 0.00 0.00 0.00 0.00 0.00 0.00 0.00 0.00 0.00 0.00 0.00 0.00 0.00 0.00 0.00 0.00 0.01 0.01 0.01 0.00 0.00 0.00 0.00 0.00 0.00 0.02 0.05 0.05 0.02 0.00 0.00 0.00
0.00 0.00 0.00 0.00 0.00 0.00 0.00 0.00 0.01 0.01 0.01 0.00 0.00 0.00 0.00 0.00 0.00 0.00 0.00 0.00 0.00 0.00 0.00 0.00 0.00 0.00 0.00 0.00 0.00 0.00 0.00 0.00 0.00 0.00 0.00 0.00 0.03 0.06 0.06 0.02 0.01 0.00 0.00
0.00 0.00 0.00 0.00 0.00 0.00 0.00 0.00 0.00 0.01 0.01 0.01 0.01 0.00 0.01 0.01 0.00 0.00 0.00 0.00 0.00 0.01 0.01 0.00 0.00 0.00 0.00 0.00 0.00 0.00 0.00 0.00 0.00 0.00 0.00 0.00 0.03 0.06 0.06 0.04 0.01 0.00 0.00
0.00 0.00 0.00 0.00 0.00 0.00 0.00 0.00 0.00 0.00 0.01 0.02 0.03 0.04 0.05 0.05 0.04 0.02 0.00 0.00 0.01 0.01 0.00 0.00 0.00 0.00 0.00 0.00 0.00 0.00 0.00 0.00 0.00 0.00 0.00 0.00 0.03 0.06 0.08 0.06 0.02 0.01 0.00
0.00 0.00 0.00 0.00 0.00 0.00 0.00 0.00 0.00 0.00 0.00 0.01 0.03 0.05 0.06 0.06 0.05 0.04 0.02 0.01 0.01 0.01 0.00 0.00 0.00 0.00 0.00 0.00 0.00 0.00 0.00 0.00 0.00 0.00 0.00 0.00 0.02 0.05 0.07 0.08 0.05 0.02 0.01
0.00 0.00 0.00 0.00 0.00 0.00 0.00 0.00 0.00 0.00 0.00 0.00 0.00 0.01 0.01 0.02 0.03 0.03 0.03 0.01 0.01 0.00 0.00 0.00 0.00 0.00 0.00 0.00 0.00 0.00 0.00 0.00 0.00 0.00 0.00 0.00 0.00 0.02 0.05 0.08 0.06 0.04 0.01
0.00 0.00 0.00 0.00 0.00 0.00 0.00 0.00 0.00 0.00 0.00 0.00 0.00 0.00 0.00 0.00 0.00 0.01 0.01 0.00 0.00 0.00 0.00 0.00 0.00 0.00 0.00 0.00 0.00 0.00 0.01 0.01 0.01 0.02 0.01 0.01 0.00 0.01 0.03 0.06 0.06 0.04 0.02
0.00 0.00 0.00 0.00 0.00 0.00 0.00 0.00 0.00 0.00 0.00 0.00 0.00 0.00 0.00 0.00 0.00 0.00 0.00 0.00 0.00 0.00 0.00 0.00 0.00 0.00 0.00 0.00 0.00 0.01 0.01 0.03 0.05 0.06 0.06 0.04 0.02 0.01 0.01 0.04 0.06 0.05 0.04
0.00 0.00 0.00 0.00 0.00 0.00 0.00 0.00 0.00 0.00 0.00 0.00 0.00 0.00 0.00 0.00 0.00 0.00 0.00 0.00 0.00 0.00 0.00 0.00 0.00 0.00 0.00 0.00 0.01 0.02 0.03 0.04 0.08 0.11 0.12 0.10 0.07 0.04 0.02 0.02 0.05 0.08 0.10
0.00 0.00 0.00 0.00 0.00 0.00 0.00 0.00 0.00 0.00 0.00 0.00 0.00 0.00 0.00 0.00 0.00 0.00 0.00 0.00 0.00 0.00 0.00 0.00 0.00 0.00 0.00 0.01 0.01 0.01 0.02 0.04 0.06 0.10 0.13 0.13 0.11 0.08 0.05 0.03 0.03 0.05 0.10
0.00 0.00 0.00 0.00 0.00 0.00 0.00 0.00 0.00 0.00 0.00 0.00 0.00 0.00 0.00 0.00 0.00 0.00 0.00 0.00 0.00 0.00 0.00 0.00 0.00 0.01 0.01 0.00 0.01 0.01 0.02 0.03 0.04 0.06 0.09 0.13 0.15 0.14 0.10 0.07 0.04 0.03 0.05
0.00 0.00 0.00 0.00 0.00 0.00 0.00 0.00 0.00 0.00 0.00 0.00 0.00 0.00 0.00 0.00 0.00 0.00 0.00 0.00 0.00 0.00 0.00 0.00 0.00 0.00 0.01 0.01 0.00 0.00 0.00 0.01 0.02 0.03 0.05 0.08 0.13 0.18 0.20 0.17 0.13 0.08 0.05
0.00 0.00 0.00 0.00 0.00 0.00 0.00 0.00 0.00 0.00 0.00 0.00 0.00 0.00 0.00 0.00 0.00 0.00 0.00 0.00 0.00 0.00 0.00 0.00 0.00 0.00 0.00 0.01 0.01 0.00 0.00 0.00 0.00 0.01 0.03 0.04 0.07 0.14 0.22 0.25 0.24 0.19 0.13
0.00 0.00 0.00 0.00 0.00 0.00 0.00 0.00 0.00 0.00 0.00 0.00 0.00 0.00 0.00 0.00 0.00 0.00 0.00 0.00 0.00 0.00 0.00 0.00 0.00 0.00 0.00 0.00 0.00 0.01 0.00 0.00 0.00 0.00 0.01 0.03 0.04 0.07 0.12 0.17 0.20 0.21 0.19
0.00 0.00 0.00 0.00 0.00 0.00 0.00 0.00 0.00 0.00 0.00 0.00 0.00 0.00 0.00 0.00 0.00 0.00 0.00 0.00 0.00 0.00 0.00 0.00 0.00 0.00 0.00 0.00 0.00 0.00 0.00 0.00 0.00 0.00 0.00 0.01 0.01 0.03 0.04 0.06 0.08 0.09 0.11
0.00 0.00 0.00 0.00 0.00 0.00 0.00 0.00 0.00 0.00 0.00 0.00 0.00 0.00 0.00 0.00 0.00 0.00 0.00 0.01 0.01 0.01 0.01 0.01 0.00 0.00 0.00 0.00 0.00 0.00 0.00 0.00 0.00 0.00 0.00 0.00 0.00 0.01 0.01 0.02 0.02 0.03 0.04
0.00 0.00 0.00 0.00 0.00 0.00 0.00 0.00 0.00 0.00 0.00 0.00 0.00 0.00 0.00 0.00 0.00 0.01 0.01 0.01 0.01 0.01 0.01 0.01 0.01 0.00 0.00 0.00 0.00 0.00 0.00 0.00 0.00 0.00 0.00 0.00 0.00 0.00 0.00 0.00 0.00 0.01 0.01
MSLP
1013.04 1012.59 1012.30 1012.22 1012.33 1012.57 1012.86 1013.11 1013.27 1013.33 1013.29 1013.21 1013.13 1013.10 1013.15 1013.26 1013.41 1013.56 1013.66 1013.72 1013.71 1013.67 1013.63 1013.61 1013.65 1013.73 1013.84 1013.97 1014.08 1014.16 1014.19 1014.20 1014.20 1014.20 1014.22 1014.27 1014.34 1014.40 1014.45 1014.46 1014.45 1014.41 1014.36
1012.85 1012.44 1012.20 1012.15 1012.29 1012.54 1012.84 1013.10 1013.26 1013.32 1013.30 1013.24 1013.19 1013.19 1013.26 1013.40 1013.56 1013.70 1013.79 1013.82 1013.79 1013.72 1013.66 1013.63 1013.65 1013.72 1013.82 1013.94 1014.03 1014.10 1014.13 1014.15 1014.16 1014.18 1014.23 1014.31 1014.40 1014.48 1014.53 1014.54 1014.52 1014.47 1014.41
1012.54 1012.19 1012.00 1012.02 1012.21 1012.50 1012.82 1013.10 1013.28 1013.35 1013.34 1013.29 1013.26 1013.28 1013.36 1013.49 1013.64 1013.76 1013.83 1013.82 1013.76 1013.68 1013.60 1013.56 1013.56 1013.62 1013.72 1013.82 1013.92 1013.98 1014.02 1014.04 1014.08 1014.13 1014.22 1014.33 1014.45 1014.55 1014.62 1014.64 1014.61 1014.56 1014.50
1012.14 1011.87 1011.77 1011.87 1012.12 1012.47 1012.83 1013.13 1013.32 1013.40 1013.40 1013.36 1013.34 1013.36 1013.43 1013.54 1013.65 1013.74 1013.77 1013.74 1013.66 1013.56 1013.48 1013.43 1013.44 1013.50 1013.59 1013.68 1013.77 1013.83 1013.88 1013.92 1013.99 1014.08 1014.20 1014.34 1014.49 1014.61 1014.69 1014.73 1014.71 1014.67 1014.62
1011.74 1011.56 1011.56 1011.74 1012.07 1012.47 1012.86 1013.18 1013.38 1013.47 1013.47 1013.43 1013.40 1013.40 1013.46 1013.53 1013.62 1013.67 1013.67 1013.62 1013.53 1013.43 1013.35 1013.31 1013.33 1013.39 1013.47 1013.56 1013.64 1013.70 1013.76 1013.82 1013.90 1014.01 1014.16 1014.33 1014.50 1014.64 1014.73 1014.78 1014.78 1014.76 1014.74
1011.45 1011.35 1011.43 1011.69 1012.08 1012.51 1012.92 1013.24 1013.44 1013.53 1013.52 1013.48 1013.43 1013.43 1013.45 1013.51 1013.56 1013.58 1013.56 1013.50 1013.41 1013.32 1013.26 1013.24 1013.27 1013.34 1013.42 1013.50 1013.57 1013.62 1013.67 1013.74 1013.82 1013.95 1014.11 1014.28 1014.45 1014.60 1014.70 1014.76 1014.79 1014.80 1014.81
1011.34 1011.30 1011.45 1011.76 1012.17 1012.61 1013.01 1013.30 1013.48 1013.54 1013.52 1013.47 1013.42 1013.41 1013.43 1013.46 1013.50 1013.51 1013.48 1013.42 1013.35 1013.28 1013.24 1013.25 1013.29 1013.36 1013.44 1013.51 1013.56 1013.59 1013.63 1013.68 1013.76 1013.88 1014.03 1014.19 1014.35 1014.49 1014.59 1014.66 1014.71 1014.75 1014.80
1011.49 1011.49 1011.66 1011.98 1012.37 1012.77 1013.11 1013.35 1013.47 1013.50 1013.46 1013.40 1013.36 1013.35 1013.37 1013.41 1013.44 1013.45 1013.43 1013.38 1013.33 1013.29 1013.28 1013.31 1013.36 1013.43 1013.50 1013.55 1013.57 1013.58 1013.59 1013.62 1013.68 1013.78 1013.90 1014.04 1014.18 1014.30 1014.39 1014.47 1014.53 1014.61 1014.71
1011.94 1011.94 1012.10 1012.37 1012.70 1013.00 1013.24 1013.38 1013.43 1013.40 1013.34 1013.28 1013.25 1013.26 1013.30 1013.34 1013.38 1013.39 1013.38 1013.35 1013.32 1013.31 1013.32 1013.37 1013.43 1013.50 1013.55 1013.58 1013.58 1013.56 1013.54 1013.53 1013.56 1013.63 1013.73 1013.84 1013.95 1014.05 1014.13 1014.21 1014.29 1014.40 1014.54
1012.68 1012.66 1012.76 1012.95 1013.15 1013.31 1013.41 1013.42 1013.37 1013.28 1013.19 1013.13 1013.11 1013.14 1013.20 1013.26 1013.30 1013.32 1013.31 1013.29 1013.27 1013.28 1013.31 1013.37 1013.44 1013.50 1013.54 1013.54 1013.51 1013.47 1013.42 1013.39 1013.40 1013.44 1013.51 1013.60 1013.68 1013.76 1013.84 1013.92 1014.02 1014.15 1014.32
1013.67 1013.60 1013.62 1013.68 1013.72 1013.72 1013.64 1013.51 1013.34 1013.17 1013.04 1012.97 1012.96 1013.01 1013.08 1013.14 1013.18 1013.20 1013.18 1013.16 1013.15 1013.17 1013.21 1013.28 1013.35 1013.40 1013.42 1013.41 1013.36 1013.29 1013.23 1013.18 1013.17 1013.20 1013.25 1013.32 1013.40 1013.47 1013.55 1013.64 1013.75 1013.90 1014.10
1014.83 1014.71 1014.62 1014.54 1014.41 1014.21 1013.96 1013.67 1013.38 1013.13 1012.96 1012.87 1012.86 1012.90 1012.96 1013.01 1013.04 1013.03 1013.00 1012.96 1012.95 1012.96 1013.01 1013.08 1013.15 1013.20 1013.21 1013.17 1013.11 1013.03 1012.95 1012.90 1012.89 1012.91 1012.96 1013.04 1013.12 1013.20 1013.28 1013.38 1013.51 1013.68 1013.90
1016.07 1015.89 1015.71 1015.48 1015.18 1014.80 1014.38 1013.94 1013.53 1013.21 1012.98 1012.86 1012.83 1012.85 1012.88 1012.89 1012.87 1012.82 1012.76 1012.70 1012.67 1012.68 1012.73 1012.80 1012.87 1012.91 1012.91 1012.87 1012.79 1012.70 1012.62 1012.56 1012.55 1012.58 1012.65 1012.73 1012.83 1012.93 1013.03 1013.16 1013.31 1013.49 1013.72
1017.30 1017.07 1016.80 1016.44 1015.99 1015.46 1014.89 1014.33 1013.84 1013.44 1013.17 1013.00 1012.93 1012.89 1012.87 1012.81 1012.73 1012.62 1012.51 1012.42 1012.37 1012.37 1012.42 1012.49 1012.56 1012.60 1012.59 1012.53 1012.44 1012.34 1012.24 1012.19 1012.18 1012.22 1012.30 1012.41 1012.52 1012.65 1012.78 1012.92 1013.10 1013.30 1013.54
1018.41 1018.15 1017.81 1017.36 1016.80 1016.16 1015.49 1014.85 1014.29 1013.85 1013.53 1013.32 1013.17 1013.06 1012.95 1012.80 1012.63 1012.44 1012.27 1012.14 1012.08 1012.07 1012.12 1012.20 1012.27 1012.30 1012.28 1012.20 1012.09 1011.97 1011.87 1011.80 1011.79 1011.83 1011.92 1012.04 1012.17 1012.32 1012.48 1012.65 1012.84 1013.07 1013.32
1019.36 1019.08 1018.69 1018.18 1017.55 1016.86 1016.14 1015.47 1014.89 1014.41 1014.06 1013.79 1013.57 1013.36 1013.13 1012.87 1012.59 1012.31 1012.07 1011.90 1011.82 1011.81 1011.86 1011.94 1012.01 1012.04 1012.00 1011.91 1011.78 1011.63 1011.50 1011.41 1011.39 1011.42 1011.50 1011.62 1011.76 1011.92 1012.10 1012.29 1012.51 1012.75 1013.02
1020.12 1019.82 1019.40 1018.86 1018.22 1017.52 1016.81 1016.15 1015.57 1015.10 1014.71 1014.38 1014.08 1013.75 1013.39 1013.00 1012.60 1012.22 1011.90 1011.69 1011.58 1011.57 1011.63 1011.71 1011.79 1011.81 1011.76 1011.65 1011.49 1011.32 1011.16 1011.04 1010.99 1011.00 1011.06 1011.16 1011.29 1011.45 1011.63 1011.83 1012.07 1012.33 1012.61
1020.72 1020.39 1019.96 1019.41 1018.78 1018.10 1017.44 1016.83 1016.29 1015.83 1015.42 1015.04 1014.63 1014.18 1013.68 1013.14 1012.60 1012.12 1011.73 1011.46 1011.33 1011.31 1011.37 1011.47 1011.55 1011.57 1011.52 1011.40 1011.22 1011.03 1010.85 1010.70 1010.61 1010.59 1010.62 1010.69 1010.80 1010.94 1011.10 1011.30 1011.54 1011.82 1012.12
1021.19 1020.84 1020.38 1019.84 1019.23 1018.61 1018.02 1017.47 1016.99 1016.55 1016.13 1015.68 1015.17 1014.59 1013.94 1013.25 1012.58 1011.98 1011.51 1011.18 1011.02 1010.99 1011.05 1011.16 1011.25 1011.28 1011.24 1011.12 1010.95 1010.75 1010.56 1010.40 1010.29 1010.23 1010.22 1010.26 1010.33 1010.43 1010.58 1010.76 1011.00 1011.27 1011.59
1021.62 1021.21 1020.73 1020.19 1019.61 1019.05 1018.52 1018.05 1017.62 1017.20 1016.76 1016.25 1015.64 1014.93 1014.14 1013.31 1012.50 1011.79 1011.22 1010.84 1010.63 1010.58 1010.64 1010.74 1010.85 1010.90 1010.89 1010.80 1010.65 1010.48 1010.30 1010.15 1010.03 1009.95 1009.92 1009.91 1009.95 1010.01 1010.12 1010.28 1010.50 1010.77 1011.09
1022.04 1021.58 1021.05 1020.49 1019.94 1019.42 1018.95 1018.53 1018.15 1017.75 1017.28 1016.71 1016.01 1015.18 1014.26 1013.29 1012.36 1011.54 1010.88 1010.42 1010.17 1010.08 1010.12 1010.23 1010.35 1010.43 1010.46 1010.42 1010.33 1010.21 1010.08 1009.96 1009.86 1009.79 1009.74 1009.71 1009.71 1009.74 1009.81 1009.94 1010.13 1010.39 1010.71
1022.51 1021.97 1021.39 1020.80 1020.25 1019.75 1019.32 1018.94 1018.57 1018.18 1017.69 1017.07 1016.28 1015.36 1014.32 1013.25 1012.20 1011.28 1010.53 1010.00 1009.68 1009.55 1009.56 1009.66 1009.78 1009.90 1009.97 1010.00 1009.99 1009.95 1009.90 1009.84 1009.79 1009.74 1009.69 1009.66 1009.63 1009.63 1009.68 1009.78 1009.94 1010.18 1010.48
1023.02 1022.40 1021.76 1021.13 1020.55 1020.05 1019.63 1019.27 1018.91 1018.51 1018.00 1017.33 1016.49 1015.49 1014.38 1013.22 1012.10 1011.09 1010.26 1009.65 1009.26 1009.06 1009.02 1009.09 1009.22 1009.36 1009.48 1009.58 1009.66 1009.72 1009.75 1009.78 1009.79 1009.79 1009.77 1009.74 1009.71 1009.70 1009.72 1009.80 1009.94 1010.16 1010.43
1023.56 1022.86 1022.16 1021.48 1020.87 1020.36 1019.92 1019.55 1019.19 1018.77 1018.24 1017.54 1016.67 1015.64 1014.49 1013.28 1012.11 1011.04 1010.14 1009.45 1008.98 1008.71 1008.60 1008.62 1008.72 1008.87 1009.03 1009.20 1009.36 1009.50 1009.63 1009.74 1009.83 1009.88 1009.91 1009.90 1009.89 1009.88 1009.90 1009.96 1010.09 1010.28 1010.54
1024.06 1023.32 1022.56 1021.85 1021.21 1020.67 1020.21 1019.82 1019.44 1019.00 1018.46 1017.76 1016.89 1015.85 1014.70 1013.49 1012.29 1011.19 1010.24 1009.48 1008.92 1008.56 1008.37 1008.32 1008.37 1008.50 1008.67 1008.88 1009.09 1009.31 1009.52 1009.71 1009.86 1009.97 1010.04 1010.08 1010.09 1010.10 1010.12 1010.19 1010.32 1010.50 1010.73
1024.51 1023.74 1022.97 1022.23 1021.56 1020.99 1020.51 1020.09 1019.69 1019.24 1018.69 1018.00 1017.15 1016.15 1015.02 1013.84 1012.65 1011.54 1010.55 1009.73 1009.08 1008.63 1008.34 1008.20 1008.18 1008.26 1008.42 1008.63 1008.88 1009.14 1009.40 1009.65 1009.85 1010.01 1010.13 1010.20 1010.24 1010.28 1010.33 1010.41 1010.54 1010.72 1010.95
Thickness
5758 5760 5760 5758 5756 5754 5753 5751 5750 5749 5748 5747 5746 5745 5744 5743 5742 5742 5741 5741 5740 5740 5740 5740 5740 5740 5739 5739 5738 5737 5736 5735 5734 5734 5733 5733 5732 5732 5732 5733 5733 5734 5734
5761 5759 5757 5755 5753 5751 5749 5748 5747 5745 5744 5743 5742 5741 5740 5739 5739 5738 5738 5738 5737 5737 5737 5737 5737 5737 5736 5736 5735 5734 5733 5732 5732 5731 5730 5729 5729 5729 5729 5730 5730 5731 5731
5759 5756 5754 5752 5749 5747 5745 5744 5742 5740 5739 5738 5737 5736 5736 5735 5735 5735 5735 5735 5734 5734 5734 5733 5733 5733 5733 5733 5732 5731 5730 5729 5728 5727 5726 5725 5725 5726 5726 5726 5727 5727 5728
5757 5753 5751 5749 5746 5744 5741 5739 5737 5735 5733 5732 5731 5731 5731 5731 5731 5731 5731 5731 5731 5731 5730 5730 5729 5729 5729 5729 5729 5728 5728 5727 5725 5724 5722 5722 5722 5722 5723 5723 5723 5724 5725
5751 5749 5747 5745 5742 5739 5737 5734 5732 5730 5728 5727 5726 5725 5725 5725 5726 5726 5726 5726 5727 5726 5726 5726 5725 5725 5725 5725 5725 5725 5724 5724 5723 5721 5720 5719 5719 5719 5720 5720 5720 5720 5721
5746 5744 5742 5740 5737 5734 5731 5729 5726 5725 5723 5722 5721 5720 5720 5721 5720 5720 5720 5721 5721 5721 5721 5721 5720 5720 5720 5720 5720 5720 5721 5720 5720 5718 5717 5717 5717 5717 5717 5717 5717 5717 5717
5740 5738 5735 5733 5731 5729 5726 5723 5721 5719 5718 5717 5716 5715 5715 5716 5715 5715 5714 5714 5715 5715 5715 5715 5715 5715 5715 5715 5715 5716 5716 5716 5717 5716 5714 5714 5714 5714 5715 5714 5714 5714 5714
5734 5732 5729 5727 5725 5723 5720 5718 5715 5713 5712 5711 5711 5710 5710 5710 5710 5709 5708 5708 5708 5709 5709 5709 5710 5710 5710 5710 5711 5711 5711 5712 5712 5713 5712 5711 5712 5712 5712 5712 5712 5712 5712
5725 5723 5721 5719 5716 5714 5712 5710 5708 5706 5706 5706 5705 5705 5704 5704 5703 5703 5703 5703 5703 5703 5703 5703 5704 5704 5705 5706 5706 5707 5707 5708 5708 5709 5709 5709 5709 5710 5710 5710 5709 5709 5709
5714 5712 5710 5709 5708 5706 5704 5702 5701 5700 5699 5699 5699 5699 5698 5698 5697 5697 5697 5697 5696 5696 5697 5697 5698 5699 5700 5701 5702 5702 5703 5704 5704 5705 5706 5706 5706 5707 5708 5707 5707 5707 5706
5701 5700 5698 5698 5698 5698 5697 5695 5694 5693 5692 5692 5692 5692 5692 5691 5691 5690 5690 5691 5691 5691 5691 5692 5693 5694 5696 5697 5698 5699 5700 5700 5701 5702 5703 5704 5704 5704 5704 5704 5704 5704 5704
5686 5687 5687 5687 5688 5689 5689 5688 5686 5686 5685 5685 5685 5686 5686 5685 5685 5685 5685 5686 5686 5687 5687 5688 5689 5690 5691 5692 5694 5695 5696 5697 5698 5700 5701 5701 5701 5701 5701 5701 5701 5701 5700
5671 5673 5675 5676 5677 5678 5678 5678 5677 5677 5677 5678 5679 5679 5679 5679 5679 5679 5679 5681 5682 5682 5682 5682 5683 5684 5686 5687 5689 5691 5692 5694 5695 5697 5698 5699 5699 5698 5698 5698 5698 5697 5697
5655 5657 5660 5662 5664 5665 5666 5666 5666 5667 5668 5670 5671 5673 5673 5673 5672 5673 5673 5674 5675 5675 5675 5676 5677 5679 5680 5682 5683 5685 5687 5689 5691 5693 5695 5696 5696 5695 5695 5694 5694 5694 5693
5639 5642 5645 5647 5648 5649 5651 5651 5653 5654 5657 5659 5661 5662 5664 5665 5665 5666 5666 5667 5668 5669 5669 5670 5671 5673 5674 5676 5678 5680 5682 5684 5685 5687 5690 5691 5692 5692 5691 5691 5690 5690 5689
5623 5625 5630 5633 5633 5634 5635 5636 5637 5639 5642 5646 5648 5650 5652 5654 5655 5656 5658 5659 5661 5662 5663 5664 5665 5666 5668 5669 5671 5674 5676 5679 5681 5682 5684 5685 5686 5687 5687 5686 5686 5686 5686
5608 5611 5615 5617 5617 5619 5619 5620 5622 5623 5626 5630 5633 5636 5639 5641 5644 5645 5647 5648 5651 5653 5655 5656 5658 5659 5660 5662 5663 5666 5669 5672 5675 5677 5678 5679 5680 5681 5681 5681 5681 5680 5680
5598 5598 5598 5600 5602 5603 5603 5603 5605 5607 5609 5612 5616 5620 5624 5627 5630 5633 5635 5637 5640 5642 5644 5645 5647 5648 5650 5652 5654 5657 5660 5664 5667 5670 5671 5672 5673 5673 5674 5675 5675 5674 5674
5585 5584 5584 5584 5584 5585 5586 5587 5588 5590 5592 5594 5597 5601 5605 5610 5614 5618 5621 5625 5628 5629 5631 5633 5635 5637 5638 5641 5643 5646 5649 5653 5657 5660 5662 5663 5664 5665 5666 5666 5667 5668 5668
5571 5570 5569 5568 5568 5568 5569 5570 5571 5572 5574 5575 5578 5581 5585 5590 5595 5600 5605 5610 5613 5615 5617 5619 5621 5624 5626 5628 5631 5634 5637 5640 5644 5647 5651 5653 5654 5656 5657 5657 5657 5659 5660
5556 5554 5553 5552 5551 5551 5551 5551 5551 5552 5553 5556 5558 5561 5564 5569 5575 5581 5587 5593 5597 5600 5603 5605 5607 5609 5612 5614 5615 5617 5622 5627 5631 5635 5638 5640 5643 5645 5646 5647 5647 5648 5650
5537 5535 5534 5532 5531 5530 5529 5528 5528 5529 5530 5533 5537 5542 5546 5550 5555 5562 5569 5575 5580 5584 5587 5589 5592 5594 5596 5599 5599 5599 5602 5608 5615 5620 5623 5626 5629 5631 5633 5635 5636 5637 5639
5514 5511 5510 5508 5507 5506 5505 5505 5505 5506 5508 5511 5515 5520 5525 5530 5536 5542 5550 5556 5562 5567 5570 5573 5576 5578 5579 5581 5584 5585 5585 5590 5595 5602 5606 5611 5614 5617 5620 5622 5624 5626 5626
5487 5484 5483 5482 5482 5481 5480 5478 5477 5478 5479 5481 5485 5492 5498 5505 5513 5521 5529 5536 5543 5548 5552 5555 5558 5561 5563 5563 5565 5568 5570 5574 5577 5583 5587 5591 5596 5600 5603 5607 5610 5612 5613
5461 5459 5457 5457 5456 5454 5453 5450 5449 5448 5450 5453 5458 5464 5472 5480 5487 5495 5504 5513 5520 5525 5531 5534 5536 5540 5543 5544 5546 5548 5550 5553 5558 5564 5568 5572 5576 5581 5585 5589 5593 5596 5598
5437 5434 5432 5430 5429 5427 5425 5423 5422 5421 5423 5426 5430 5435 5442 5450 5458 5466 5474 5485 5494 5500 5505 5510 5513 5517 5521 5524 5526 5528 5531 5535 5538 5542 5546 5550 5555 5560 5565 5570 5575 5578 5581